Regional Weather Roundup
Issued by NWS Green Bay, WI

Home | Current Version | Previous Version | Graphics & Text | Print | Product List | Glossary Off
Versions: 1 2 3 4 5 6 7 8 9 10 11 12 13 14 15 16 17 18 19 20 21 22 23 24 25 26 27 28 29 30 31 32 33 34 35 36 37 38 39 40 41 42 43 44 45 46 47 48 49 50

000
ASUS43 KGRB 092211
RWRGRB

NORTH-CENTRAL AND NORTHEAST WISCONSIN REGIONAL WEATHER ROUNDUP
NATIONAL WEATHER SERVICE GREEN BAY WI
400 PM CST FRI DEC 09 2016

WIZ005-009-010>012-018-019-092300-
NORTH CENTRAL WISCONSIN

CITY           SKY/WX    TMP DP  RH WIND       PRES   REMARKS
IRONWOOD       FLURRIES  14   7  73 W10       30.41S WCI   1
MANITOWISH WTR CLOUDY    13   6  74 W3        30.37S
ARBOR VITAE    CLOUDY    17   8  69 NW3       30.37S
EAGLE RIVER    CLOUDY    14   5  67 W9        30.37R WCI   2
LAND O LAKES   CLOUDY    14   7  73 W3        30.38S
RHINELANDER    CLOUDY    16   6  65 W7        30.38S WCI   6
PHILLIPS       CLOUDY    15   9  76 W6        30.39S WCI   6
ANTIGO         CLOUDY    16   6  66 NW9       30.39S WCI   4
TOMAHAWK       CLOUDY    16   7  69 W7        30.40S WCI   6
MERRILL        CLOUDY    18   7  63 NW8       30.42S WCI   7
$$

WIZ013-073-092300-
NORTHEAST WISCONSIN

CITY           SKY/WX    TMP DP  RH WIND       PRES   REMARKS
IRON MOUNTAIN  CLOUDY    20   5  52 NW10      30.35R WCI   9
MARINETTE      CLOUDY    24   8  50 NW8       30.42R
OCONTO         CLOUDY    23   8  53 NW8       30.42S
$$

WIZ017-030-035>037-045-092300-
CENTRAL WISCONSIN

CITY           SKY/WX    TMP DP  RH WIND       PRES   REMARKS
MEDFORD        CLOUDY    15   9  74 W8        30.40S WCI   5
WAUSAU         CLOUDY    17   8  67 W9        30.42R WCI   6
MOSINEE        MOCLDY    18   9  68 W8        30.43S WCI   7
MARSHFIELD     CLOUDY    18   9  68 W12       30.42S WCI   5
WISC RAPIDS    PTCLDY    19   8  62 NW7       30.46S WCI  10
STEVENS POINT  MOCLDY    17   7  64 W8        30.45S WCI   7
WAUPACA        CLEAR     23   7  51 W9G16     30.46S
SHAWANO        CLOUDY    24   8  51 W10G16    30.44R
CLINTONVILLE   PTCLDY    21   7  53 NW9       30.44S
WAUTOMA        CLEAR     21   8  57 NW8       30.47S
$$

WIZ038-039-048-051-092300-
FOX VALLEY

CITY           SKY/WX    TMP DP  RH WIND       PRES   REMARKS
NWS GREEN BAY  CLOUDY    26   9  48 W14       30.43R
APPLETON       PTCLDY    21   7  53 MISG      30.42R
OSHKOSH        CLEAR     21   7  54 NW8       30.45R
FOND DU LAC    CLEAR     22   7  52 W12       30.46R
$$

WIZ022-050-052-092300-
EAST CENTRAL WISCONSIN

CITY           SKY/WX    TMP DP  RH WIND       PRES   REMARKS
EPHRAIM        CLOUDY    24  10  55 NW8       30.37S
WASHINGTON ISL CLOUDY    25   9  51 W8        30.37S
STURGEON BAY   CLOUDY    24   8  50 NW10      30.41R
MANITOWOC      CLOUDY    24   9  52 NW13      30.44R
SHEBOYGAN      CLEAR     23   6  48 NW12G21   30.44R
$$

LMZ563-521-522-541>543-092300-
LAKESHORE

STATION/POSITION TIME  TEMP    WIND        PRES    VSBY  WAVE
                       AIR SEA DIR/SP/G                  HT/PER
                 (UTC) (F)     (DEG/KT/KT) (MB)    (MI)  (FT/S)
SHEBOYGAN LKSHOR 2200   24     300/ 13/ 16 1031.9R
KEWAUNEE LKSHORE 2142   25     300/ 11/ 17 1029.3R
NORTHPORT PIER   2149   26     290/  8/ 16 1028.4R
SISTER BAY LKSHO 2150   27     290/ 19/ 22   N/A
CHAMBERS ISLAND  2140   25     290/  7/ 13 1028.4R
MENOMINEE LKSHOR 2142   24     280/ 12/ 18 1028.7R
$$




USA.gov is the U.S. government's official web portal to all federal, state and local government web resources and services.